Wichita, KS

12:41 AM CDT on September 26, 2016 (GMT -0500)
Wichita Eisenhower National Airport

Weather History for KICT - March, 2013

Change the Weather History Date:

Wednesday, March 6, 2013

  Actual Average Record
Temperature  
Mean Temperature 34 °F 43 °F  
Max Temperature 47 °F 55 °F 80 °F (1925)
Min Temperature 21 °F 32 °F 4 °F (1943)
Degree Days  
Heating Degree Days 31 22  
Month to date heating degree days 180 135  
Since 1 July heating degree days 3451 3775  
Cooling Degree Days 0 0  
Month to date cooling degree days 0 0  
Year to date cooling degree days 0 0  
Moisture  
Dew Point 20 °F    
Average Humidity 59    
Maximum Humidity 81    
Minimum Humidity 37    
Precipitation  
Precipitation 0.00 in 0.08 in 0.88 in (1990)
Month to date precipitation 0.04 0.42  
Year to date precipitation 3.06 2.43  
Snow  
Snow 0.00 in 0.10 in 2.20 in (1941)
Month to date snowfall 0.0 0.5  
Since 1 July snowfall 24.5 12.9  
Snow Depth 0.00 in    
Sea Level Pressure  
Sea Level Pressure 30.35 in    
Wind  
Wind Speed 7 mph (ESE)    
Max Wind Speed 17 mph    
Max Gust Speed 21 mph    
Visibility 10 miles    
Events      
T = Trace of Precipitation, MM = Missing Value Source: NWS Daily Summary

Daily Weather History Graph

Daily Weather History Graph

Search for Another Location

Airport or City:

Trip Planner

Search our weather history database for the weather conditions in past years. The results will help you decide how hot, cold, wet, or windy it might be!

Date:

Astronomy

Mar. 06, 2013 Rise Set
Actual Time 6:53 AM CST 6:28 PM CST
Civil Twilight 6:27 AM CST 6:54 PM CST
Nautical Twilight 5:57 AM CST 7:25 PM CST
Astronomical Twilight 5:26 AM CST 7:55 PM CST
Moon 2:59 AM CST (3/6) 1:16 PM CST (3/6)
Length of Visible Light 12h 27m
Length of Day
11h 35m
Waning Crescent, 29% of the Moon is Illuminated
Mar 6
Waning Crescent
Mar 11
New
Mar 19
First Quarter
Mar 27
Full
Apr 2
Last Quarter

Hourly Weather History & Observations

Time (CST) Temp. Windchill Dew Point Humidity Pressure Visibility Wind Dir Wind Speed Gust Speed Precip Events Conditions
12:53 AM 25.0 °F 19.3 °F 19.0 °F 78% 30.44 in 10.0 mi WNW 4.6 mph - N/A   Clear
1:53 AM 27.0 °F 23.0 °F 19.9 °F 75% 30.44 in 10.0 mi North 3.5 mph - N/A   Clear
2:53 AM 26.1 °F 21.9 °F 19.9 °F 78% 30.44 in 10.0 mi NNW 3.5 mph - N/A   Clear
3:53 AM 26.1 °F 19.4 °F 18.0 °F 71% 30.42 in 10.0 mi NNE 5.8 mph - N/A   Clear
4:53 AM 25.0 °F 19.3 °F 18.0 °F 75% 30.43 in 10.0 mi NNE 4.6 mph - N/A   Clear
5:53 AM 25.0 °F 19.3 °F 17.1 °F 72% 30.43 in 10.0 mi NE 4.6 mph - N/A   Clear
6:53 AM 24.1 °F 17.0 °F 17.1 °F 75% 30.44 in 10.0 mi NE 5.8 mph - N/A   Partly Cloudy
7:53 AM 27.0 °F - 18.0 °F 69% 30.45 in 10.0 mi Calm Calm - N/A   Partly Cloudy
8:53 AM 28.9 °F 23.9 °F 19.0 °F 67% 30.47 in 10.0 mi Variable 4.6 mph - N/A   Partly Cloudy
9:53 AM 30.9 °F 26.2 °F 19.0 °F 61% 30.47 in 10.0 mi East 4.6 mph - N/A   Scattered Clouds
10:53 AM 34.0 °F 31.0 °F 19.9 °F 56% 30.45 in 10.0 mi Variable 3.5 mph - N/A   Partly Cloudy
11:53 AM 37.9 °F 32.7 °F 21.0 °F 51% 30.43 in 10.0 mi SE 6.9 mph - N/A   Scattered Clouds
12:53 PM 39.0 °F 34.0 °F 19.9 °F 46% 30.40 in 10.0 mi South 6.9 mph - N/A   Mostly Cloudy
1:53 PM 42.1 °F 37.1 °F 21.0 °F 43% 30.35 in 10.0 mi SSW 8.1 mph - N/A   Mostly Cloudy
2:53 PM 44.1 °F 39.0 °F 21.9 °F 42% 30.32 in 10.0 mi SSE 9.2 mph - N/A   Mostly Cloudy
3:53 PM 46.0 °F 39.6 °F 21.9 °F 39% 30.29 in 10.0 mi SSE 15.0 mph - N/A   Mostly Cloudy
4:53 PM 45.0 °F 37.9 °F 19.9 °F 37% 30.26 in 10.0 mi SSE 16.1 mph - N/A   Overcast
5:53 PM 44.1 °F 38.1 °F 21.9 °F 42% 30.23 in 10.0 mi SE 11.5 mph - N/A   Overcast
6:53 PM 43.0 °F 37.7 °F 21.0 °F 42% 30.23 in 10.0 mi SSE 9.2 mph - N/A   Mostly Cloudy
7:53 PM 42.1 °F 37.7 °F 19.9 °F 41% 30.23 in 10.0 mi SE 6.9 mph - N/A   Mostly Cloudy
8:53 PM 37.9 °F 31.5 °F 21.0 °F 51% 30.22 in 10.0 mi SE 9.2 mph - N/A   Partly Cloudy
9:53 PM 37.9 °F 30.9 °F 21.9 °F 53% 30.22 in 10.0 mi SE 10.4 mph - N/A   Clear
10:53 PM 36.0 °F 28.0 °F 23.0 °F 59% 30.21 in 10.0 mi SE 11.5 mph - N/A   Partly Cloudy
11:53 PM 36.0 °F 28.5 °F 23.0 °F 59% 30.20 in 10.0 mi SE 10.4 mph - N/A   Partly Cloudy